Regional Weather Roundup
Issued by NWS

Home | Current Version | Previous Version | Graphics & Text | Print | Product List | Glossary On
Versions: 1 2 3 4 5 6 7 8 9 10 11 12 13 14 15 16 17 18 19 20 21 22 23 24 25 26 27 28 29 30 31 32 33 34 35 36 37 38 39 40 41 42 43 44 45 46 47 48 49 50
000
ASUS43 KFSD 290210
RWRSD

WEATHER ROUNDUP FOR SOUTH DAKOTA
NATIONAL WEATHER SERVICE SIOUX FALLS SD
900 PM CDT MON JUL 28 2014

NOTE: "FAIR" INDICATES FEW OR NO CLOUDS BELOW 12,000 FEET WITH NO
SIGNIFICANT WEATHER AND/OR OBSTRUCTIONS TO VISIBILITY.


SDZ001>005-009-010-012>017-290300-
NORTHWEST AND NORTH CENTRAL SOUTH DAKOTA

CITY           SKY/WX    TMP DP  RH WIND       PRES   REMARKS
BUFFALO          N/A     71  54  54 E9        30.18S
FAITH            N/A     69  54  58 E8        30.24S
MOBRIDGE       CLEAR     67  53  61 NE7       30.21S
$$

SDZ012>016-024>037-041>051-057-063-072>074-290300-
SOUTHWEST AND SOUTH CENTRAL SOUTH DAKOTA

CITY           SKY/WX    TMP DP  RH WIND       PRES   REMARKS
RAPID CTY ARPT PTCLDY    70  54  56 E8        30.23S
PIERRE         CLEAR     70  55  59 NE8       30.21R
CUSTER         CLEAR     66  50  56 E9        30.35S
ELLSWORTH AFB  CLEAR     74  53  47 E12       30.24R
PHILIP         CLEAR     74  50  42 E12       30.21S
PINE RIDGE     CLEAR     74  56  53 E10       30.21S
WINNER         FAIR      73  50  44 E7        30.22R
$$

SDZ004>011-016>023-039-040-290300-
NORTHEAST SOUTH DAKOTA

CITY           SKY/WX    TMP DP  RH WIND       PRES   REMARKS
ABERDEEN       CLEAR     65  54  67 E3        30.22S
WATERTOWN      CLEAR     62  52  69 N3        30.22S
SISSETON         N/A     63  57  81 NW3       30.20S
$$

SDZ017-020-022-023-036>040-048>070-290300-
SOUTHEAST SOUTH DAKOTA

CITY           SKY/WX    TMP DP  RH WIND       PRES   REMARKS
SIOUX FALLS    PTCLDY    65  54  67 N3        30.21R
HURON          CLEAR     67  52  58 NE5       30.20F
CHAMBERLAIN    CLEAR     69  53  57 E6        30.21S
MITCHELL       CLEAR     68  54  60 NE3       30.21S
YANKTON          N/A    N/A N/A N/A NW5       30.19F
$$

ABBREVIATIONS USED IN REMARKS
   TC - TEMPERATURE IN CELSIUS
  WCI - WIND CHILL INDEX
   HX - HEAT INDEX
  VSB - VISIBILITY



USA.gov is the U.S. government's official web portal to all federal, state and local government web resources and services.